Location: La Fredeussais
(48.1780°N, 1.3980°W)
Time: 15:53:54
(UTC+00:00)

NOSS 3-3 (C) - Pass Details

Date: 09 May 2021
Orbit: 806 x 1406 km, 63.4° (Epoch: 14 June)

Event Time Altitude Azimuth Distance (km) Brightness Sun altitude
Rises 20:59:07 0° 203° (SSW) 3,365 6.6 -12.6°
Reaches altitude 10° 21:01:29 10° 199° (SSW) 2,477 5.9 -12.9°
Maximum altitude 21:07:02 56° 122° (ESE) 1,089 3.9 -13.5°
Drops below altitude 10° 21:13:22 10° 46° (NE) 2,817 6.4 -14.2°
Sets 21:16:13 0° 43° (NE) 3,868 7.2 -14.5°
